User: anonymous   Login
Location: Goudex
(43.3760°N, 0.9543°E)
Time: 14:37:55
(UTC+00:00)
Language:

ALOS - Orbit

View from above orbital plane
View from above orbital plane
View from above satellite
View from above satellite

Ground track
Ground track

The orbit data is extracted from the following two-line orbital elements,

1 28931U 06002A   20021.99648896  .00000073  00000-0  22939-4 0  9994
2 28931  97.8338  15.0614 0000935  95.0961 265.0361 14.62675444746145
Epoch (UTC): 21 January 2020 23:54:56
Eccentricity: 0.0000935
inclination: 97.8338°
perigee height: 684 km
apogee height: 685 km
right ascension of ascending node: 15.0614°
argument of perigee: 95.0961°
revolutions per day: 14.62675444
mean anomaly at epoch: 265.0361°
orbit number at epoch: 74614

The dashed part of the orbit path shows where the satellite is in the earth's shadow,  

DLR